OBJECT AT, 61776

Orbit data source: Space-Track

You're viewing an Uncataloged Satellite

Recently launched and/or uncataloged satellites may have evolving metadata. Metadata may include but not limited to: Owner, Maufacturer, Bus, Motor, and Mission.

OBJECT AT, 61776 is a satellite in SSO that was launched on Mon, 04 Nov 2024 UTC via a SOYUZ-2-1B launch vehicle from the Vostochny Cosmodrome (VOSTO). Unknown objects in Earth's orbit typically refer to objects detected orbiting the Earth but have not yet been identified or cataloged. These objects could be anything from previously untracked satellites, spent rocket stages, debris from satellite collisions, or even natural meteoroids temporarily captured by Earth's gravity.

Loading next visibility...
Identifier
61776, 2024-199AT
Orbit
SSO
Country
Flag of TBDTBD
Related business
Manufacturer
Sputniks
Mission
Operational Commercial Communications
Bus & Motor
CUBESAT 3U?, Unknown motor
Mass
3 kg wet, 3 kg dry
Launch date (UTC)
2024-11-04 (2 years ago)
Launch vehicle
SOYUZ-2-1B
Launch site
Vostochny Cosmodrome (VOSTO)
Object type
Unknown
Shape & HBR
Box, 0.1 m
Radar Cross Section
0.035 m², Small (<0.1 m²)

Expand to show TLE details & history
Last TLE update: 12 hours ago

TLE from 12 hours ago
0 OBJECT AT
1 61776U 24199AT  26145.58632855  .00050596  00000-0  66794-3 0  9992
2 61776  97.2933  21.5791 0006848  32.9180 327.2501 15.58205715134104
Epoch: 2026-05-25T14:04Z
TLE epoch observation values (Epoch: 2026-05-25T14:04:18.786Z)
Latitude
-0.00007°
Longitude
-72.67116°
Altitude
392.096 km
Speed
7.677 km/s
True Right ascension
01h 26m 18s
True Declination
0° 00' 00"
Sunlit
Object was in daylight at epoch
Visualization orbit readout
Latitude
Unknown
Longitude
Unknown
Altitude
Unknown
Speed
Unknown
Apparent Right ascension
Unknown
Apparent Declination
Unknown
Sunlit
N/A
Visualization observer readout
Local Sidereal Time
11:38:25
Azimuth
Unknown
Elevation
Unknown
Doppler factor
Unknown
Orbital elements
Apogee altitude
394.395 km
Perigee altitude
385.126 km
Semi-major axis
6,767.897 km
Eccentricity
0.00068
Inclination
97.2933°
RAAN
21.5791°
Arg. of periapsis
32.918°
True anomaly
327.20762°
Mean anomaly
327.2501°
Eccentric anomaly
327.22886°
Mean motion
3.89819 °/min
Orbital period
92.35 mins
BSTAR
0.00066794
Loading maneuver chart data...
Computing Atmospheric mass density...
Loading historical data...
Loading historical data...
Loading historical data...
Loading historical data...
Loading historical data...
Loading historical data...
Loading historical data...

Documentation

Showing up to 5 results
|